Retour au catalogue

STARLINK-2568

ActifCommunicationsVLEO
NORAD 48406·PAYLOAD·🇺🇸 United States

Lancé May 4, 2021 depuis Cape Canaveral Space Force Station

Loading…

Prochains Passages (prochaines 24 heures)

TLE

FraisSource: CelesTrak SupGP

Époque: Sep 14, 2026, 14:10 UTC

1 48406C 21038BF  26257.59076389  .00060636  00000+0  18280-2 0  2573
2 48406  53.1577 176.5369 0002819 101.8282 304.0693 15.33721129    11

Suivez STARLINK-2568 en temps réel avec AllMySat

Download on the App Store